QZS-6

导读 | 星芒AI

QZS-6 是日本准天顶卫星系统(QZSS)的第六颗卫星,旨在增强日本及周边地区的卫星定位服务。该卫星由日本宇宙航空研究开发机构(JAXA)与日本国土交通省合作推进,计划于2023年发射。QZS-6 将提供高精度定位、广域增强系统(WAAS)兼容服务以及低延迟通信功能,提升 GPS 和北斗等系统的性能,支持自动驾驶、灾害应急响应等应用,进一步完善日本的卫星导航体系。

基本信息
目录编号:
62876
目录名称:
QZS-6
国际标识:
2025-023A
轨道中心:
EARTH
卫星名称:
QZS-6
卫星全名:
QZS-6
卫星状态:
在轨 (已飞行269 天)
发射日期:
2025-02-02 UTC
国别 :
日本 (JP)
星等 :
--
轨道信息
数据来源 国际轨道数据 AOE轨道数据
星历时间 2025-10-28T09:45:39+0800
1天前
查看轨道信息
2025-10-28T03:00:00+0800
1天前
查看轨道信息
半长轴 42162.71km 42165.513km
偏心率 0.0001265 0.0001428
轨道倾角 0.053° 0.052°
近地点辐角 187.511° 193.037°
升交点赤经 30.024° 30.573°
平近点角 296.089° 188.323°
近地点 35779.241km 35781.356km
远地点 35789.909km 35793.4km
周期 1435.994分钟 1436.137分钟
每日圈数 1.00279 1.00269
详细信息
使用方式:
暂无
2D轨道图
3D轨道图
轨道高度分析图
轨道倾角分析图
轨道综合分析图
查看轨道综合分析图